Home   Weather   Kumamoto   Past weeks

Flag for Japan Past Weather in Kumamoto, Japan — Yesterday and Last 2 Weeks

Now
48 °F

Passing clouds.


Feels Like: 45 °F
Forecast: 33 / 57 °F
Wind: 8 mph from Northeast

Location: Kumamoto Airport

Current Time: Feb 27, 2017 at 8:30:09 pm

Latest Report: Feb 27, 2017 at 7:00 pm


Visibility: N/A

Pressure: 30.18 "Hg

Humidity: 54%

Dew Point: 32 °F

Location of KumamotoLocation

Past Weather in Kumamoto — Graph

°F

Kumamoto Temperature Yesterday

Maximum temperature yesterday: 50 °F (at 3:00 pm)
Minimum temperature yesterday: 36 °F (at 7:00 am)
Average temperature yesterday: 45 °F

High & Low Weather Summary for the Past Weeks

 TemperatureHumidityPressure
High64 °F (Feb 17, 1:00 pm)100% (Feb 14, 6:26 am)30.45 "Hg (Feb 14, 6:26 am)
Low27 °F (Feb 16, 7:00 am)16% (Feb 19, 2:00 pm)29.77 "Hg (Feb 20, 10:45 am)
Average47 °F64%30.14 "Hg
* Reported Feb 12 7:00 pm — Feb 27 7:00 pm, Kumamoto, Weather by CustomWeather, © 2017

Note: Actual official high and low records may vary slightly from our data, if they occured in-between our weather recording intervals... More about our weather records

Advertising

Kumamoto Weather History for the Previous 24 Hours

Scroll right to see more
 ConditionsComfort  
Time TempWeatherWind HumidityBarometerVisibility
7:00 pm
Mon, Feb 27
48 °FPassing clouds.8 mph54%30.18 "HgN/A
6:00 pm50 °FPartly sunny.8 mph50%30.18 "HgN/A
5:00 pm54 °FBroken clouds.9 mph38%30.15 "HgN/A
4:00 pm55 °FBroken clouds.8 mph36%30.15 "HgN/A
3:00 pm55 °FScattered clouds.8 mph36%30.12 "HgN/A
2:00 pm59 °FPassing clouds.6 mph31%30.12 "HgN/A
1:00 pm55 °FPassing clouds.3 mph33%30.15 "HgN/A
12:00 pm52 °FPassing clouds.5 mph38%30.18 "HgN/A
11:00 am48 °FPassing clouds.3 mph50%30.21 "HgN/A
10:00 am46 °FPassing clouds.2 mph57%30.24 "HgN/A
9:00 am43 °FSunny.5 mph66%30.24 "Hg10 mi
8:00 am41 °FPassing clouds.3 mph70%30.24 "HgN/A
7:00 am36 °FPassing clouds.6 mph81%30.21 "HgN/A
6:10 am36 °FClear.7 mph81%30.18 "Hg10 mi
9:00 pm
Sun, Feb 26
43 °FPassing clouds.2 mph66%30.18 "HgN/A
8:00 pm43 °FPartly cloudy.2 mph61%30.18 "HgN/A
Weather by CustomWeather, © 2017

See weather overviewHow to use our weather pages